PDT,Max TemperatureF,Mean TemperatureF,Min TemperatureF,Max Dew PointF,MeanDew PointF,Min DewpointF,Max Humidity, Mean Humidity, Min Humidity, Max Sea Level PressureIn, Mean Sea Level PressureIn, Min Sea Level PressureIn, Max VisibilityMiles, Mean VisibilityMiles, Min VisibilityMiles, Max Wind SpeedMPH, Mean Wind SpeedMPH, Max Gust SpeedMPH,PrecipitationIn, CloudCover, Events, WindDirDegrees
2013-5-1,60,42,24,18,13,9,64,34,14,30.50,30.41,30.31,10,10,8,16,10,23,0.00,0,,34
2013-5-2,71,50,28,28,15,5,65,27,12,30.51,30.39,30.28,10,10,10,13,7,17,0.00,0,,343
2013-5-3,71,54,37,27,22,18,60,29,13,30.27,30.21,30.13,10,10,9,20,11,26,0.00,0,,350
2013-5-4,62,50,39,43,32,27,87,52,29,30.17,30.02,29.88,10,10,8,24,13,39,0.00,3,Thunderstorm,12
2013-5-5,68,55,42,36,33,30,70,44,26,29.88,29.84,29.79,10,10,10,23,12,36,0.00,3,,39
2013-5-6,66,50,35,46,40,32,93,67,34,29.97,29.89,29.84,10,10,6,20,7,30,0.00,3,Thunderstorm,81
2013-5-7,62,54,46,52,46,43,93,82,52,30.07,29.97,29.93,10,10,5,22,8,31,0.22,6,Thunderstorm,152
2013-5-8,64,52,41,52,45,39,100,82,49,30.22,30.11,30.04,10,9,0,23,5,28,0.03,5,Thunderstorm,111
2013-5-9,75,58,42,52,44,37,93,62,29,30.26,30.19,30.16,10,10,10,14,7,22,0.01,2,Thunderstorm,355
2013-5-10,78,60,41,48,40,30,87,55,18,30.32,30.29,30.25,10,10,9,10,6,,0.00,0,,8
2013-5-11,80,61,42,46,42,37,93,52,21,30.33,30.28,30.21,10,10,9,15,7,20,0.00,0,,172
2013-5-12,80,62,44,50,40,28,87,48,15,30.28,30.23,30.15,10,10,9,20,8,28,0.00,0,,180
2013-5-13,78,58,39,43,37,32,87,47,18,30.19,30.15,30.08,10,10,10,29,11,39,0.00,0,,202
2013-5-14,77,57,37,45,37,28,87,51,19,30.16,30.09,30.03,10,10,8,15,7,22,0.00,0,,306
2013-5-15,68,54,41,41,36,32,76,49,28,30.09,30.04,29.99,10,10,10,21,10,26,0.00,3,,282
2013-5-16,53,46,39,45,39,36,93,79,62,30.05,29.98,29.92,10,10,7,14,5,,0.03,6,,209
2013-5-17,60,50,39,43,37,28,93,66,31,30.09,29.98,29.94,10,10,10,15,4,24,0.03,6,,250
2013-5-18,62,46,30,45,34,27,93,64,33,30.24,30.14,30.09,10,10,9,29,6,37,0.02,5,,288
2013-5-19,60,45,30,34,31,27,93,59,29,30.32,30.28,30.24,10,10,10,16,10,23,0.00,0,,353
2013-5-20,69,50,32,39,31,23,87,51,18,30.30,30.18,29.98,10,10,9,12,8,17,0.00,0,,356
2013-5-21,62,48,33,43,29,19,87,50,22,29.98,29.87,29.80,10,10,10,34,11,44,0.00,2,,239
2013-5-22,53,36,19,27,19,14,93,51,24,29.99,29.95,29.90,10,10,10,15,8,21,0.00,3,,246
2013-5-23,53,44,35,34,28,25,75,59,35,30.01,29.95,29.90,10,10,10,24,8,30,0.00,6,Thunderstorm,326
2013-5-24,64,45,26,34,28,21,93,52,22,30.02,29.99,29.95,10,10,10,14,5,21,0.00,3,,228
2013-5-25,66,48,30,37,32,23,93,53,19,30.03,29.99,29.95,10,10,10,17,7,25,0.00,3,,202
2013-5-26,62,50,37,45,35,27,82,58,27,30.09,30.02,29.99,10,10,7,23,6,28,0.00,5,,239
2013-5-27,53,44,35,45,41,30,93,81,70,30.09,29.98,29.91,10,10,9,23,10,28,0.01,8,,188
2013-5-28,62,50,39,43,37,30,93,66,31,29.99,29.93,29.85,10,10,10,16,5,23,0.00,6,,221
2013-5-29,62,52,41,43,35,28,87,55,29,30.02,29.90,29.81,10,10,8,18,12,26,0.00,6,,245
2013-5-30,66,48,30,36,30,21,93,52,19,30.18,30.07,30.02,10,10,5,16,5,22,0.00,1,,284
2013-5-31,71,56,41,37,32,25,71,44,18,30.26,30.22,30.18,10,10,8,16,10,18,0.00,0,,336